Weather History for KUDG - June, 2013

Change the Weather History Date:

Monday, June 17, 2013

  Actual Average (KFLO) Record (KFLO)
Temperature  
Mean Temperature 78 °F 79 °F  
Max Temperature 87 °F 89 °F 105 °F (1981)
Min Temperature 69 °F 69 °F 55 °F (1979)
Degree Days  
Heating Degree Days 0 0  
Month to date heating degree days 0  
Since 1 June heating degree days 0  
Since 1 July heating degree days 2523  
Cooling Degree Days 13 14  
Month to date cooling degree days 205  
Year to date cooling degree days 512  
Since 1 June cooling degree days 205  
Growing Degree Days 28 (Base 50)    
Moisture  
Dew Point 65 °F    
Average Humidity 69    
Maximum Humidity 88    
Minimum Humidity 48    
Precipitation  
Precipitation 0.60 in 0.16 in 1.99 in (1953)
Month to date precipitation 2.66  
Year to date precipitation 18.02  
Sea Level Pressure  
Sea Level Pressure 30.05 in    
Wind  
Wind Speed 8 mph (SSW)    
Max Wind Speed 22 mph    
Max Gust Speed 30 mph    
Visibility 10 miles    
Events Thunderstorm    
T = Trace of Precipitation, MM = Missing Value Source: NWS Daily Summary

Daily Weather History Graph

Daily Weather History Graph

Search for Another Location

Airport or City:

Trip Planner

Search our weather history database for the weather conditions in past years. The results will help you decide how hot, cold, wet, or windy it might be!

Date:

Astronomy

Jun. 17, 2013 Rise Set
Actual Time 6:06 AM EDT 8:34 PM EDT
Civil Twilight 5:37 AM EDT 9:03 PM EDT
Nautical Twilight 5:01 AM EDT 9:40 PM EDT
Astronomical Twilight 4:21 AM EDT 10:20 PM EDT
Moon 2:23 PM EDT (6/17) 1:27 AM EDT (6/17)
Length of Visible Light 15h 26m
Length of Day
14h 27m
First Quarter, 60% of the Moon is Illuminated
Jun 17
First Quarter
Jun 23
Full
Jun 30
Last Quarter
Jul 8
New
Jul 15
First Quarter

Hourly Weather History & Observations

Time (EDT) Temp. Heat Index Dew Point Humidity Pressure Visibility Wind Dir Wind Speed Gust Speed Precip Events Conditions
12:15 AM 75.2 °F - 62.6 °F 65% 30.10 in 10.0 mi SSW 8.1 mph - N/A   Clear
12:35 AM 73.4 °F - 62.6 °F 69% 30.10 in 10.0 mi South 8.1 mph - N/A   Clear
12:55 AM 73.4 °F - 62.6 °F 69% 30.09 in 10.0 mi South 8.1 mph - N/A   Clear
1:15 AM 73.4 °F - 62.6 °F 69% 30.09 in 10.0 mi SSW 6.9 mph - N/A   Clear
1:35 AM 73.4 °F - 60.8 °F 65% 30.09 in 10.0 mi South 4.6 mph - N/A   Clear
1:55 AM 71.6 °F - 62.6 °F 73% 30.09 in 10.0 mi SSW 5.8 mph - N/A   Clear
2:15 AM 71.6 °F - 62.6 °F 73% 30.09 in 10.0 mi SSW 6.9 mph - N/A   Scattered Clouds
2:35 AM 71.6 °F - 62.6 °F 73% 30.09 in 10.0 mi South 6.9 mph - N/A   Scattered Clouds
2:55 AM 71.6 °F - 62.6 °F 73% 30.08 in 10.0 mi South 5.8 mph - N/A   Clear
3:15 AM 71.6 °F - 62.6 °F 73% 30.08 in 10.0 mi South 6.9 mph - N/A   Clear
3:35 AM 71.6 °F - 62.6 °F 73% 30.07 in 10.0 mi SSW 5.8 mph - N/A   Clear
3:55 AM 69.8 °F - 62.6 °F 78% 30.08 in 10.0 mi SSW 5.8 mph - N/A   Clear
4:15 AM 69.8 °F - 62.6 °F 78% 30.08 in 10.0 mi SSW 5.8 mph - N/A   Clear
4:35 AM 69.8 °F - 62.6 °F 78% 30.08 in 10.0 mi SW 6.9 mph - N/A   Scattered Clouds
4:55 AM 69.8 °F - 62.6 °F 78% 30.08 in 10.0 mi SSW 6.9 mph - N/A   Scattered Clouds
5:15 AM 69.8 °F - 62.6 °F 78% 30.08 in 10.0 mi SSW 6.9 mph - N/A   Partly Cloudy
5:35 AM 69.8 °F - 62.6 °F 78% 30.08 in 10.0 mi SSW 8.1 mph - N/A   Clear
5:55 AM 69.8 °F - 62.6 °F 78% 30.08 in 10.0 mi SSW 6.9 mph - N/A   Clear
6:15 AM 69.8 °F - 62.6 °F 78% 30.07 in 10.0 mi SW 5.8 mph - N/A   Clear
6:35 AM 69.8 °F - 62.6 °F 78% 30.07 in 10.0 mi SW 6.9 mph - N/A   Clear
6:55 AM 71.6 °F - 62.6 °F 73% 30.08 in 10.0 mi SW 5.8 mph - N/A   Clear
7:15 AM 71.6 °F - 62.6 °F 73% 30.07 in 10.0 mi SW 6.9 mph - N/A   Clear
7:35 AM 71.6 °F - 62.6 °F 73% 30.08 in 10.0 mi SW 8.1 mph - N/A   Scattered Clouds
7:55 AM 73.4 °F - 62.6 °F 69% 30.07 in 10.0 mi SSW 8.1 mph - N/A   Partly Cloudy
8:15 AM 73.4 °F - 64.4 °F 73% 30.08 in 10.0 mi SSW 9.2 mph - N/A   Clear
8:35 AM 75.2 °F - 64.4 °F 69% 30.08 in 10.0 mi SSW 8.1 mph - N/A   Clear
8:55 AM 77.0 °F - 62.6 °F 61% 30.07 in 10.0 mi SW 10.4 mph - N/A   Clear
9:15 AM 78.8 °F - 64.4 °F 61% 30.07 in 10.0 mi SW 11.5 mph - N/A   Clear
9:35 AM 80.6 °F 81.8 °F 62.6 °F 54% 30.07 in 10.0 mi SW 9.2 mph - N/A   Clear
9:55 AM 80.6 °F 81.8 °F 62.6 °F 54% 30.07 in 10.0 mi SW 11.5 mph - N/A   Partly Cloudy
10:15 AM 80.6 °F 81.8 °F 62.6 °F 54% 30.06 in 10.0 mi SW 10.4 mph - N/A   Partly Cloudy
10:35 AM 82.4 °F 83.4 °F 62.6 °F 51% 30.06 in 10.0 mi WSW 10.4 mph - N/A   Clear
10:55 AM 84.2 °F 85.0 °F 62.6 °F 48% 30.06 in 10.0 mi WSW 12.7 mph - N/A   Partly Cloudy
11:15 AM 84.2 °F 85.0 °F 62.6 °F 48% 30.06 in 10.0 mi WSW 10.4 mph - N/A   Mostly Cloudy
11:35 AM 82.4 °F 83.4 °F 62.6 °F 51% 30.06 in 10.0 mi SW 9.2 mph - N/A   Overcast
11:55 AM 82.4 °F 83.4 °F 62.6 °F 51% 30.06 in 10.0 mi SW 9.2 mph - N/A   Mostly Cloudy
12:15 PM 82.4 °F 83.4 °F 62.6 °F 51% 30.07 in 10.0 mi WSW 16.1 mph - N/A   Mostly Cloudy
12:35 PM 75.2 °F - 64.4 °F 69% 30.05 in 10.0 mi Calm Calm - 0.03 in   Overcast
12:55 PM 78.8 °F - 68.0 °F 69% 30.05 in 10.0 mi South 5.8 mph - 0.03 in   Mostly Cloudy
1:15 PM 84.2 °F 86.6 °F 66.2 °F 55% 30.04 in 10.0 mi SSW 9.2 mph - N/A   Partly Cloudy
1:55 PM 84.2 °F 86.6 °F 66.2 °F 55% 30.04 in 10.0 mi SSW 12.7 mph - N/A   Clear
2:15 PM 86.0 °F 88.2 °F 66.2 °F 51% 30.04 in 10.0 mi SSW 9.2 mph - N/A   Partly Cloudy
2:35 PM 87.8 °F 90.4 °F 66.2 °F 49% 30.03 in 10.0 mi SSE 9.2 mph - N/A   Partly Cloudy
2:55 PM 87.8 °F 91.4 °F 68.0 °F 52% 30.01 in 10.0 mi South 9.2 mph - N/A   Scattered Clouds
3:15 PM 87.8 °F 90.4 °F 66.2 °F 49% 30.00 in 10.0 mi SSW 10.4 mph 16.1 mph N/A   Mostly Cloudy
3:35 PM 87.8 °F 90.4 °F 66.2 °F 49% 29.99 in 10.0 mi SSW 8.1 mph - N/A   Mostly Cloudy
3:55 PM 87.8 °F 90.4 °F 66.2 °F 49% 29.98 in 10.0 mi South 10.4 mph - N/A   Mostly Cloudy
4:15 PM 87.8 °F 90.4 °F 66.2 °F 49% 29.98 in 10.0 mi South 8.1 mph - N/A   Mostly Cloudy
4:35 PM 80.6 °F 83.2 °F 68.0 °F 65% 29.99 in 10.0 mi SW 17.3 mph - N/A   Mostly Cloudy
4:55 PM 78.8 °F - 68.0 °F 69% 29.98 in 10.0 mi SSW 15.0 mph 18.4 mph N/A   Scattered Clouds
5:15 PM 77.0 °F - 69.8 °F 78% 29.98 in 10.0 mi South 5.8 mph - 0.01 in   Scattered Clouds
5:35 PM 80.6 °F 84.6 °F 71.6 °F 74% 29.97 in 10.0 mi SSE 6.9 mph - 0.01 in   Partly Cloudy
5:55 PM 80.6 °F 84.6 °F 71.6 °F 74% 29.98 in 10.0 mi South 3.5 mph - 0.01 in   Partly Cloudy
6:15 PM 80.6 °F 84.6 °F 71.6 °F 74% 29.98 in 10.0 mi Calm Calm - N/A   Partly Cloudy
6:35 PM 82.4 °F 87.2 °F 71.6 °F 70% 29.98 in 10.0 mi Calm Calm - N/A   Partly Cloudy
6:55 PM 80.6 °F 84.6 °F 71.6 °F 74% 29.98 in 10.0 mi NNE 9.2 mph - N/A   Mostly Cloudy
7:15 PM 80.6 °F 84.6 °F 71.6 °F 74% 29.98 in 10.0 mi NE 8.1 mph - N/A   Mostly Cloudy
7:35 PM 80.6 °F 84.6 °F 71.6 °F 74% 29.98 in 10.0 mi ENE 4.6 mph - N/A   Scattered Clouds
7:55 PM 78.8 °F - 71.6 °F 78% 29.98 in 10.0 mi Calm Calm - N/A   Partly Cloudy
8:15 PM 77.0 °F - 68.0 °F 74% 30.00 in 6.0 mi SW 21.9 mph 29.9 mph 0.03 in Thunderstorm Mostly Cloudy
8:35 PM 73.4 °F - 66.2 °F 78% 30.05 in 7.0 mi WSW 12.7 mph - 0.29 in Thunderstorm Thunderstorm
8:55 PM 71.6 °F - 66.2 °F 83% 30.05 in 8.0 mi NW 12.7 mph 19.6 mph 0.40 in Thunderstorm Overcast
9:15 PM 71.6 °F - 66.2 °F 83% 30.05 in 9.0 mi West 5.8 mph - 0.08 in   Mostly Cloudy
9:35 PM 71.6 °F - 66.2 °F 83% 30.04 in 10.0 mi SSW 3.5 mph - 0.13 in   Mostly Cloudy
9:55 PM 71.6 °F - 66.2 °F 83% 30.03 in 10.0 mi SE 5.8 mph - 0.15 in   Overcast
10:15 PM 69.8 °F - 66.2 °F 88% 30.02 in 10.0 mi SE 3.5 mph - 0.01 in   Mostly Cloudy
10:35 PM 71.6 °F - 66.2 °F 83% 30.02 in 10.0 mi SSE 4.6 mph - 0.01 in   Clear
10:55 PM 71.6 °F - 66.2 °F 83% 30.03 in 10.0 mi SSE 4.6 mph - 0.01 in   Clear
11:15 PM 71.6 °F - 66.2 °F 83% 30.03 in 10.0 mi South 4.6 mph - N/A   Partly Cloudy
11:35 PM 71.6 °F - 66.2 °F 83% 30.03 in 10.0 mi South 5.8 mph - N/A   Partly Cloudy
11:55 PM 71.6 °F - 66.2 °F 83% 30.02 in 10.0 mi SSE 4.6 mph - N/A   Scattered Clouds